Regional Weather Roundup
Issued by NWS Goodland, KS

Home | Current Version | Previous Version | Text Only | Print | Product List | Glossary Off
Versions: 1 2 3 4 5 6 7 8 9 10 11 12 13 14 15 16 17 18 19 20 21 22 23 24 25 26 27 28 29 30 31 32 33 34 35 36 37 38 39 40 41 42 43 44 45 46 47 48 49 50

000
ASUS43 KGLD 271959
RWRGLD

GOODLAND FORECAST AREA HOURLY WEATHER ROUNDUP
NATIONAL WEATHER SERVICE GOODLAND KS
200 PM MDT THU JUL 27 2017

...OFFICIAL OBSERVATIONS...

CITY           SKY/WX    TMP DP  RH WIND       PRES   REMARKS
GOODLAND KS    PTSUNNY   81  65  58 E10       30.16F
HILL CITY KS   PTSUNNY   87  65  47 E8        30.08F
IMPERIAL NEB   CLOUDY    82  61  48 VRB6      30.14F
MCCOOK NEB     CLOUDY    85  61  44 NE6       30.11F
AKRON CO       MOSUNNY   82  59  45 SE14      30.19F
BURLINGTON CO  CLOUDY    79  63  57 E3        30.19F
LIMON CO       PTSUNNY   79  62  56 VRB3      30.24F
$$

...UNOFFICIAL OBSERVATIONS...

CITY           SKY/WX    TMP DP  RH WIND       PRES   REMARKS
LENORA KS        N/A     83  32  16 MISG        N/A
NORTON KS      SUNNY     82  55  39 N7        30.09F
SHARON SPRINGS   N/A     78  67  68 NE8         N/A
TRENTON NEB      N/A     84  32  15 CALM        N/A
KIT CARSON CO    N/A     78  64  61 MISG        N/A
YUMA CO        PTSUNNY   79  55  44 SE10G16   30.17F
$$




USA.gov is the U.S. government's official web portal to all federal, state and local government web resources and services.